SL-12 R/B(2), 25927

Orbit data source: Space-Track

SL-12 R/B(2), 25927 is space debris in HEO originally from a launch on Sun, 26 Sep 1999 UTC launched from the Tyuratam Missile And Space Complex (TTMTR). Debris objects in space refer to the collection of defunct objects orbiting the Earth. Examples of debris include non-operational satellites, rocket bodies, and fragments generated from explosions, collisions, or faulty payload assembly.

Loading next visibility...
Identifier
25927, 1999-053D
Orbit
HEO
Last TLE update
19 hours ago
Origin
Manufacturer
RKKE
Mission
Spacecraft
Bus & Motor
BLOK DM2, Unknown motor
Mass
2,560 kg wet, 2,560 kg dry
Launch date (UTC)
1999-09-26 (26 years ago)
Launch vehicle
Unknown
Launch site
Tyuratam Missile And Space Complex (TTMTR)
Object type
Payload
Rocket body
Debris
Shape & HBR
Cyl + 1 Nozzle, 6.3 m
Radar Cross Section
23.684 m², Large (>1 m²)

Expand to show TLE details & history

TLE from 19 hours ago
0 SL-12 R/B(2)
1 25927U 99053D   25186.40199299 -.00000047  00000-0  00000-0 0  9998
2 25927  17.8120 350.9761 5323442 211.0080  98.6021  1.89348825177854
Epoch: 2025-07-05T09:38Z
TLE epoch observation values (Epoch: 2025-07-05T09:38:52.194Z)
Latitude
-0.56843°
Longitude
-79.14315°
Altitude
29,378.208 km
Speed
2.802 km/s
True Right ascension
23h 16m 51s
True Declination
0° 34' 04"
Sunlit
Object was in daylight at epoch
Visualization orbit readout
Latitude
16.9671°
Longitude
-6.00976°
Altitude
26,668.029 km
Speed
3.112 km/s
Apparent Right ascension
04h 12m 29s
Apparent Declination
8° 39' 56"
Sunlit
Object is in daylight
Visualization observer readout
Local Sidereal Time
16:32:29
Azimuth
6.578° NNE
Elevation
-41.198°
Doppler factor
1
Orbital elements
Apogee altitude
35,916.53 km
Perigee altitude
6,529.763 km
Semi-major axis
27,601.284 km
Eccentricity
0.53234
Inclination
17.812°
RAAN
350.9761°
Arg. of periapsis
211.008°
True anomaly
Unknown
Mean anomaly
98.6021°
Eccentric anomaly
Unknown
Mean motion
0.47331 °/min
Orbital period
760.59 mins
BSTAR
0
Loading maneuver chart data...
Loading SW <> Apogee altitude chart data...
Loading historical data...
Loading historical data...
Loading historical data...
Loading historical data...
Loading historical data...
Loading historical data...
Loading historical data...
Other satellites on launch #53 in the year 1999 (1999-09-26 UTC)

SL-12 R/B(2) Visibility forecast

Observer location: undefined°, undefined°

Span
Click to sort rows by Start time (UTC) header in descending order
Start Az.
Max El. time (UTC)
Max El. Az.
Max El.
End time (UTC)
End Az.
677 mins2025-07-06 08:30:17.843Z204.241° SW2025-07-06 18:26:17.843Z197.794° SSW40.74°2025-07-06 19:47:17.843Z121.534° SE
|